EST,Max TemperatureF,Mean TemperatureF,Min TemperatureF,Max Dew PointF,MeanDew PointF,Min DewpointF,Max Humidity, Mean Humidity, Min Humidity, Max Sea Level PressureIn, Mean Sea Level PressureIn, Min Sea Level PressureIn, Max VisibilityMiles, Mean VisibilityMiles, Min VisibilityMiles, Max Wind SpeedMPH, Mean Wind SpeedMPH, Max Gust SpeedMPH,PrecipitationIn, CloudCover, Events, WindDirDegrees
2012-11-1,51,45,38,38,34,24,92,67,42,29.87,29.83,29.79,10,8,4,17,9,25,0.09,7,Rain,246
2012-11-2,54,45,35,33,28,24,73,56,38,30.07,29.93,29.82,10,10,10,21,5,28,0.00,4,,287
2012-11-3,50,41,31,39,32,28,92,69,46,30.19,30.12,30.08,10,10,7,9,2,12,0.15,6,Rain,29
2012-11-4,51,42,33,36,31,27,85,64,42,30.13,30.10,30.06,10,10,10,12,3,15,0.00,5,,20
2012-11-5,50,39,28,31,27,24,92,66,39,30.19,30.14,30.10,10,9,6,9,1,13,0.00,2,,65
2012-11-6,58,42,26,32,29,24,92,64,36,30.10,30.00,29.91,10,10,6,9,1,13,0.00,1,,120
2012-11-7,56,45,33,33,30,26,89,64,38,30.05,29.93,29.88,10,10,7,13,3,17,0.00,3,,16
2012-11-8,51,39,27,29,27,25,92,67,41,30.23,30.17,30.06,10,10,10,10,2,14,0.00,0,,295
2012-11-9,60,44,27,31,29,25,92,62,31,30.32,30.24,30.20,10,10,10,7,0,12,0.00,0,,255
2012-11-10,74,54,34,36,32,29,89,55,20,30.31,30.25,30.21,10,10,10,10,2,14,0.00,1,,202
2012-11-11,79,58,37,43,34,26,92,54,16,30.39,30.27,30.20,10,10,10,17,3,23,0.00,0,,164
2012-11-12,73,57,40,54,45,33,89,62,35,30.40,30.18,30.00,10,8,3,26,9,35,0.27,5,Rain,206
2012-11-13,47,38,29,32,27,23,96,69,41,30.51,30.46,30.41,10,10,7,14,2,17,0.00,2,,293
2012-11-14,47,36,25,28,25,23,92,69,45,30.52,30.45,30.35,10,10,6,12,2,16,0.00,0,Snow,43
2012-11-15,52,39,26,30,27,23,92,67,41,30.36,30.32,30.28,10,10,7,7,1,9,0.00,0,,307
2012-11-16,54,40,26,31,27,24,92,64,36,30.47,30.40,30.33,10,9,6,9,1,13,0.00,0,,14
2012-11-17,58,42,25,30,26,23,92,61,30,30.56,30.49,30.45,10,10,7,7,1,8,0.00,0,,64
2012-11-18,63,45,26,32,29,23,92,61,30,30.51,30.45,30.39,10,10,9,7,0,13,0.00,0,,65
2012-11-19,61,45,28,36,31,26,92,63,33,30.40,30.31,30.19,10,10,8,6,1,10,0.00,0,,43
2012-11-20,60,48,35,36,31,28,89,59,29,30.19,30.14,30.09,10,10,8,7,0,10,0.00,4,,-1
2012-11-21,62,47,32,34,30,26,89,58,27,30.23,30.19,30.13,10,10,10,6,1,8,0.00,0,,150
2012-11-22,66,48,29,32,28,26,92,57,22,30.27,30.19,30.08,10,10,6,5,0,6,0.00,0,,280
2012-11-23,60,47,34,47,35,22,86,66,45,30.12,30.01,29.94,10,9,4,21,9,29,0.09,5,Rain,260
2012-11-24,34,33,31,21,19,18,63,59,54,30.20,30.16,30.12,10,10,9,17,6,24,T,8,Snow,284
2012-11-25,49,38,27,22,18,14,69,47,24,30.14,30.06,29.95,10,10,10,15,4,21,0.00,3,,210
2012-11-26,57,43,29,39,27,22,78,54,30,30.20,30.14,30.06,10,10,9,9,1,10,0.04,4,Rain,241
2012-11-27,44,41,37,39,35,30,92,84,76,30.31,30.24,30.16,10,6,2,12,2,14,0.41,8,Rain,333
2012-11-28,43,35,27,32,27,24,85,67,49,30.44,30.38,30.30,10,9,7,13,4,16,0.00,5,,242
2012-11-29,52,37,22,30,25,20,96,66,35,30.48,30.39,30.30,10,10,10,10,1,13,0.00,0,,70
2012-11-30,60,44,27,33,29,25,92,61,30,30.36,30.29,30.21,10,10,10,16,2,21,0.00,2,,217